| time (UTC) | temp C | wind direction | speed KPH | gust KPH | rain 1hr cm | rain 24hr cm | rain mn cm | humidity % | barometer mb |
| 20260505041537 | 12 | 324 | 1.6 | 4.8 | 0.30 | 0.53 | 0.53 | 95 | 1019.5 |
| 20260505040536 | 13 | 308 | 1.6 | 6.4 | 0.38 | 0.53 | 0.53 | 94 | 1019.4 |
| 20260505035535 | 13 | 350 | 1.6 | 8.0 | 0.43 | 0.53 | 0.53 | 94 | 1019.4 |
| 20260505034534 | 13 | 345 | 1.6 | 4.8 | 0.41 | 0.48 | 0.48 | 94 | 1019.4 |
| 20260505033533 | 13 | 359 | 1.6 | 6.4 | 0.33 | 0.41 | 0.41 | 94 | 1019.3 |
| 20260505032531 | 13 | 359 | 1.6 | 4.8 | 0.23 | 0.30 | 0.30 | 93 | 1019.2 |
| 20260505031552 | 13 | 22 | 3.2 | 6.4 | 0.15 | 0.23 | 0.23 | 93 | 1019.3 |
| 20260505030549 | 13 | 350 | 1.6 | 4.8 | 0.08 | 0.15 | 0.15 | 93 | 1019.1 |
| 20260505025528 | 13 | 342 | 3.2 | 6.4 | 0.03 | 0.10 | 0.10 | 93 | 1019.3 |
| 20260505024527 | 13 | 297 | 3.2 | 6.4 | 0.03 | 0.10 | 0.10 | 92 | 1019.2 |
| 20260505023546 | 13 | 337 | 1.6 | 8.0 | 0.03 | 0.08 | 0.08 | 92 | 1019.4 |
| 20260505022524 | 13 | 7 | 3.2 | 6.4 | 0.03 | 0.08 | 0.08 | 91 | 1019.2 |
| 20260505021524 | 13 | 5 | 4.8 | 6.4 | 0.03 | 0.08 | 0.08 | 91 | 1019.3 |
| 20260505020522 | 13 | 21 | 3.2 | 4.8 | 0.05 | 0.08 | 0.08 | 90 | 1019.3 |
| 20260505015521 | 13 | 22 | 1.6 | 3.2 | 0.05 | 0.05 | 0.05 | 90 | 1019.3 |
| 20260505014519 | 13 | 15 | 3.2 | 4.8 | 0.05 | 0.05 | 0.05 | 89 | 1019.4 |
| 20260505013518 | 13 | 112 | 1.6 | 3.2 | 0.05 | 0.05 | 0.05 | 89 | 1019.3 |
| 20260505012517 | 13 | 100 | 3.2 | 6.4 | 0.05 | 0.05 | 0.05 | 86 | 1019.4 |
| 20260505011515 | 13 | 97 | 1.6 | 3.2 | 0.05 | 0.05 | 0.05 | 86 | 1019.3 |
| 20260505010614 | 13 | 9 | 3.2 | 4.8 | 0.03 | 0.03 | 0.03 | 84 | 1019.5 |
| 20260505005613 | 13 | 34 | 1.6 | 3.2 | 0.00 | 0.00 | 0.00 | 84 | 1019.7 |
| 20260505004611 | 13 | 133 | 1.6 | 4.8 | 0.00 | 0.00 | 0.00 | 85 | 1019.8 |
| 20260505003610 | 13 | 196 | 1.6 | 4.8 | 0.00 | 0.00 | 0.00 | 84 | 1019.7 |
| 20260505002608 | 14 | 224 | 0.0 | 4.8 | 0.00 | 0.00 | 0.00 | 83 | 1019.9 |
| 20260505001629 | 14 | 354 | 0.0 | 3.2 | 0.00 | 0.00 | 0.00 | 82 | 1020.2 |
| 20260505000625 | 14 | 21 | 0.0 | 3.2 | 0.00 | 0.00 | 0.00 | 82 | 1020.4 |
| 20260504235604 | 14 | 23 | 0.0 | 3.2 | 0.00 | 0.00 | 0.00 | 81 | 1020.4 |
| 20260504234603 | 14 | 223 | 0.0 | 3.2 | 0.00 | 0.00 | 0.00 | 81 | 1020.5 |
| 20260504233601 | 14 | 145 | 3.2 | 4.8 | 0.00 | 0.00 | 0.00 | 82 | 1020.7 |
| 20260504232600 | 14 | 123 | 3.2 | 4.8 | 0.00 | 0.00 | 0.00 | 84 | 1020.8 |
| 20260504231600 | 14 | 166 | 3.2 | 4.8 | 0.00 | 0.00 | 0.00 | 84 | 1020.9 |
| 20260504230558 | 14 | 147 | 0.0 | 3.2 | 0.00 | 0.00 | 0.00 | 84 | 1021.1 |
| 20260504225617 | 14 | 193 | 1.6 | 6.4 | 0.00 | 0.00 | 0.00 | 83 | 1021.0 |
| 20260504224555 | 14 | 8 | 0.0 | 3.2 | 0.00 | 0.00 | 0.00 | 83 | 1021.2 |
| 20260504223556 | 15 | 189 | 3.2 | 4.8 | 0.00 | 0.00 | 0.00 | 82 | 1021.2 |
| 20260504222554 | 14 | 0 | 0.0 | 1.6 | 0.00 | 0.00 | 0.00 | 82 | 1021.2 |
| 20260504221551 | 15 | 198 | 1.6 | 6.4 | 0.00 | 0.00 | 0.00 | 83 | 1021.3 |
| 20260504220551 | 15 | 189 | 3.2 | 4.8 | 0.00 | 0.00 | 0.00 | 81 | 1021.3 |
| 20260504215609 | 15 | 198 | 0.0 | 3.2 | 0.00 | 0.00 | 0.00 | 80 | 1021.5 |
| 20260504214548 | 15 | 55 | 1.6 | 3.2 | 0.00 | 0.00 | 0.00 | 80 | 1021.5 |
| 20260504213547 | 15 | 30 | 1.6 | 3.2 | 0.00 | 0.00 | 0.00 | 79 | 1021.4 |
| 20260504212546 | 15 | 78 | 1.6 | 3.2 | 0.00 | 0.00 | 0.00 | 79 | 1021.4 |
| 20260504211606 | 15 | 13 | 1.6 | 3.2 | 0.00 | 0.00 | 0.00 | 79 | 1021.3 |
| 20260504210544 | 15 | 30 | 1.6 | 3.2 | 0.00 | 0.00 | 0.00 | 78 | 1021.5 |
| 20260504205542 | 16 | 340 | 1.6 | 3.2 | 0.00 | 0.00 | 0.00 | 78 | 1021.5 |
| 20260504204541 | 16 | 345 | 1.6 | 3.2 | 0.00 | 0.00 | 0.00 | 78 | 1021.4 |
| 20260504203540 | 16 | 1 | 1.6 | 4.8 | 0.00 | 0.00 | 0.00 | 77 | 1021.5 |
| 20260504202538 | 16 | 20 | 4.8 | 6.4 | 0.00 | 0.00 | 0.00 | 77 | 1021.5 |
| 20260504201537 | 16 | 21 | 3.2 | 4.8 | 0.00 | 0.00 | 0.00 | 76 | 1021.5 |
| 20260504200536 | 16 | 30 | 1.6 | 4.8 | 0.00 | 0.00 | 0.00 | 76 | 1021.3 |
| 20260504195534 | 16 | 15 | 3.2 | 4.8 | 0.00 | 0.00 | 0.00 | 75 | 1021.3 |
| 20260504194553 | 16 | 34 | 4.8 | 6.4 | 0.00 | 0.00 | 0.00 | 74 | 1021.3 |
| 20260504193531 | 16 | 15 | 3.2 | 6.4 | 0.00 | 0.00 | 0.00 | 73 | 1021.2 |
| 20260504192531 | 16 | 14 | 1.6 | 3.2 | 0.00 | 0.00 | 0.00 | 72 | 1021.3 |
| 20260504191528 | 16 | 26 | 3.2 | 3.2 | 0.00 | 0.00 | 0.00 | 72 | 1021.2 |
| 20260504190527 | 16 | 31 | 3.2 | 6.4 | 0.00 | 0.00 | 0.00 | 72 | 1021.2 |
| 20260504185525 | 17 | 23 | 4.8 | 6.4 | 0.00 | 0.00 | 0.00 | 71 | 1021.1 |
| 20260504184525 | 17 | 5 | 3.2 | 6.4 | 0.00 | 0.00 | 0.00 | 71 | 1021.0 |
| 20260504183522 | 17 | 32 | 4.8 | 8.0 | 0.00 | 0.00 | 0.00 | 71 | 1021.0 |
| 20260504182521 | 17 | 25 | 6.4 | 11.3 | 0.00 | 0.00 | 0.00 | 70 | 1020.9 |
| 20260504181519 | 17 | 33 | 4.8 | 9.7 | 0.00 | 0.00 | 0.00 | 70 | 1020.9 |
| 20260504180536 | 17 | 36 | 4.8 | 12.9 | 0.00 | 0.00 | 0.00 | 69 | 1020.9 |
| 20260504180026 | 17 | 28 | 8.0 | 12.9 | 0.00 | 0.00 | 0.00 | 69 | 1020.8 |
| 20260504175026 | 17 | 33 | 11.3 | 16.1 | 0.00 | 0.00 | 0.00 | 67 | 1020.9 |
| 20260504174044 | 17 | 42 | 9.7 | 17.7 | 0.00 | 0.00 | 0.00 | 65 | 1020.9 |
| 20260504173039 | 17 | 44 | 8.0 | 14.5 | 0.00 | 0.00 | 0.00 | 64 | 1020.9 |
| 20260504172038 | 18 | 51 | 9.7 | 17.7 | 0.00 | 0.00 | 0.00 | 62 | 1020.9 |
| 20260504171037 | 18 | 35 | 9.7 | 16.1 | 0.00 | 0.00 | 0.00 | 60 | 1020.7 |
| 20260504151021 | 20 | 281 | 3.2 | 12.9 | 0.00 | 0.00 | 0.00 | 56 | 1020.7 |
| 20260504141114 | 20 | 239 | 3.2 | 9.7 | 0.00 | 0.00 | 0.00 | 55 | 1020.9 |
| 20260504140113 | 20 | 223 | 4.8 | 12.9 | 0.00 | 0.00 | 0.00 | 55 | 1020.9 |
| 20260504130106 | 21 | 289 | 4.8 | 11.3 | 0.00 | 0.00 | 0.00 | 55 | 1021.4 |
| 20260504110111 | 20 | 151 | 6.4 | 12.9 | 0.00 | 0.00 | 0.00 | 44 | 1022.4 |
| 20260504081031 | 17 | 106 | 3.2 | 6.4 | 0.00 | 0.00 | 0.00 | 61 | 1023.2 |
| 20260504050112 | 10 | 12 | 4.8 | 8.0 | 0.00 | 0.00 | 0.00 | 96 | 1022.5 |